This is the latest recevied weather packets stored in our database for station/object KC5DAQ-28. If no packets are shown the sender has not sent any weather packets the latest 10 day(s).
| Time | Temp. | Humidity | Pressure | Rain* | Wind** | Luminosity | Snow |
|---|---|---|---|---|---|---|---|
| 1778270349 | 23.33° C | 85% | 1004.5 hPa | 0 mm | - | 463 W/m² | - |
| 1778270289 | 23.33° C | 85% | 1004.4 hPa | 0 mm | - | 403 W/m² | - |
| 1778270231 | 23.33° C | 85% | 1004.3 hPa | 0 mm | - | 387 W/m² | - |
| 1778270170 | 23.33° C | 85% | 1004.4 hPa | 0 mm | - | 387 W/m² | - |
| 1778270110 | 23.89° C | 86% | 1004.4 hPa | 0 mm | - | 382 W/m² | - |
| 1778270050 | 23.89° C | 86% | 1004.4 hPa | 0 mm | - | 410 W/m² | - |
| 1778269988 | 23.89° C | 86% | 1004.4 hPa | 0 mm | - | 426 W/m² | - |
| 1778269929 | 23.33° C | 86% | 1004.5 hPa | 0 mm | - | 426 W/m² | - |
| 1778269868 | 23.33° C | 86% | 1004.5 hPa | 0 mm | - | 382 W/m² | - |
| 1778269807 | 23.33° C | 86% | 1004.5 hPa | 0 mm | - | 459 W/m² | - |
| 1778269749 | 23.33° C | 86% | 1004.7 hPa | 0 mm | - | 459 W/m² | - |
| 1778269689 | 23.33° C | 86% | 1004.7 hPa | 0 mm | - | 436 W/m² | - |
| 1778269629 | 23.33° C | 86% | 1004.8 hPa | 0 mm | - | 436 W/m² | - |
| 1778269569 | 23.33° C | 86% | 1004.8 hPa | 0 mm | - | 436 W/m² | - |
| 1778269509 | 23.33° C | 86% | 1004.9 hPa | 0 mm | - | 338 W/m² | - |
| 1778269450 | 23.33° C | 86% | 1005 hPa | 0 mm | - | 376 W/m² | - |
| 1778269388 | 23.33° C | 86% | 1004.9 hPa | 0 mm | - | 376 W/m² | - |
| 1778269327 | 23.33° C | 86% | 1004.9 hPa | 0 mm | - | 376 W/m² | - |
| 1778269268 | 23.33° C | 86% | 1004.9 hPa | 0 mm | - | 376 W/m² | - |
| 1778269208 | 23.33° C | 85% | 1004.8 hPa | 0 mm | - | 376 W/m² | - |
| 1778269148 | 23.33° C | 86% | 1004.9 hPa | 0 mm | - | 376 W/m² | - |
| 1778269087 | 23.33° C | 86% | 1004.8 hPa | 0 mm | - | 376 W/m² | - |
| 1778269029 | 23.33° C | 86% | 1004.8 hPa | 0 mm | - | 346 W/m² | - |
| 1778268967 | 23.33° C | 86% | 1004.8 hPa | 0 mm | - | 331 W/m² | - |
| 1778268907 | 23.33° C | 85% | 1004.7 hPa | 0 mm | - | 341 W/m² | - |
* Rain latest hour (hover to see other rain measurements)
** Current wind speed in m/s (hover to see current wind gust speed)